sat.trackr.live / text

‹ back to catalog

STARLINK-2753

NORAD 48696 · 2021-044BL

PAYLOAD ACTIVE UNKNOWN

§ Identity

Operator
Country
US
Launch date
2021-05-26
Launch site
AFETR
Launch vehicle
Mass (kg)
RCS (m²)

Purposes: comms

External: N2YO · Heavens-Above · Gunter

§ Orbital elements

Epoch: 2026-09-09T21:06:00.232704Z

Period
93.89 min
Inclination
53.1582°
Eccentricity
0.0003536
Mean motion
15.33700421 rev/d
Perigee alt
462.4 km
Apogee alt
467.2 km
Semi-major
6,842.9 km
B*
8.4398e-4
RAAN
311.2152°
Arg perigee
27.4859°
Mean anomaly
332.6330°
Rev number
29,240

§ Raw data

STARLINK-27531 48696U 21044BL  26252.87916936  .00027622  00000+0  84398-3 0  99932 48696  53.1582 311.2152 0003536  27.4859 332.6330 15.33700421292409

JSON: /api/v1/satellites/48696 · /tle

For live sub-satellite position, see the globe view (requires WebGL).

§ Visibility from observer

Set your observer location to see the next 7 days of passes ≥ 10°. The values pass through the URL so the page stays shareable.

No JS? Fill the form by hand. The geolocation button needs JavaScript.